Home   Weather   Columbus Park   Past weeks
Flag for USA

Past Weather in Columbus Park, Nebraska, USA — Yesterday and Last 2 Weeks

Now
86 °F

Scattered clouds.


Feels Like: 88 °F
Forecast: 88 / 70 °F
Wind: 5 mph from Southeast

Location: Millard Airport

Current Time: Jul 4, 2020 at 5:22:05 pm

Latest Report: Jul 4, 2020 at 4:55 pm


Visibility: 10 mi

Pressure: 30.00 "Hg

Humidity: 52%

Dew Point: 66 °F

Location of Columbus ParkLocation

Past Weather in Columbus Park — Graph

°F

Columbus Park Temperature Yesterday

Maximum temperature yesterday: 89 °F (at 5:35 pm)
Minimum temperature yesterday: 75 °F (at 3:15 am)
Average temperature yesterday: 82 °F

High & Low Weather Summary for the Past Weeks

 TemperatureHumidityPressure
High93 °F (Jun 25, 6:35 pm)94% (Jul 2, 4:56 am)30.08 "Hg (Jul 2, 4:56 am)
Low57 °F (Jun 24, 6:15 am)36% (Jun 24, 4:10 pm)29.58 "Hg (Jun 28, 5:55 am)
Average78 °F68%29.87 "Hg
* Reported Jun 19 4:15 pm — Jul 4 4:35 pm, Columbus Park. Weather by CustomWeather, © 2020

Note: Actual official high and low records may vary slightly from our data, if they occured in-between our weather recording intervals... More about our weather records

Columbus Park Weather History for the Previous 24 Hours

Scroll right to see more
 ConditionsComfort  
Time TempWeatherWind HumidityBarometerVisibility
4:35 pm
Sat, Jul 4
88 °FBroken clouds.6 mph51%30.00 "Hg10 mi
4:15 pm89 °FBroken clouds.5 mph49%30.01 "Hg10 mi
3:55 pm89 °FPartly sunny.8 mph48%30.02 "Hg10 mi
3:35 pm89 °FScattered clouds.7 mph46%30.02 "Hg10 mi
3:15 pm89 °FScattered clouds.6 mph45%30.03 "Hg10 mi
2:55 pm88 °FScattered clouds.6 mph49%30.03 "Hg10 mi
2:35 pm88 °FScattered clouds.7 mph50%30.04 "Hg10 mi
2:15 pm86 °FScattered clouds.3 mph51%30.04 "Hg10 mi
1:55 pm85 °FPartly sunny.3 mph52%30.05 "Hg10 mi
1:35 pm87 °FPartly sunny.8 mph50%30.06 "Hg10 mi
1:15 pm85 °FBroken clouds.No wind53%30.06 "Hg10 mi
12:55 pm87 °FBroken clouds.9 mph50%30.06 "Hg10 mi
12:15 pm86 °FScattered clouds.8 mph49%30.06 "Hg10 mi
11:55 am85 °FScattered clouds.8 mph53%30.07 "Hg10 mi
11:35 am86 °FScattered clouds.7 mph52%30.07 "Hg10 mi
11:15 am85 °FSunny.8 mph54%30.07 "Hg10 mi
10:55 am84 °FSunny.8 mph53%30.07 "Hg10 mi
10:35 am84 °FSunny.7 mph53%30.07 "Hg10 mi
10:15 am83 °FSunny.6 mph57%30.07 "Hg10 mi
9:55 am82 °FSunny.6 mph60%30.07 "Hg10 mi
9:35 am82 °FSunny.5 mph64%30.08 "Hg10 mi
9:15 am81 °FSunny.5 mph67%30.07 "Hg10 mi
8:55 am80 °FSunny.No wind68%30.07 "Hg10 mi
8:35 am80 °FSunny.6 mph70%30.08 "Hg10 mi
7:55 am77 °FSunny.No wind76%30.07 "Hg10 mi
7:35 am76 °FSunny.No wind81%30.06 "Hg10 mi
7:15 am74 °FSunny.No wind84%30.06 "Hg10 mi
6:55 am72 °FFog.No wind90%30.05 "Hg5 mi
6:35 am70 °FFog.No wind92%30.05 "Hg2 mi
6:15 am71 °FFog.No wind92%30.04 "Hg2 mi
5:55 am70 °FFog.No wind92%30.04 "Hg2 mi
5:35 am71 °FFog.No wind91%30.04 "Hg4 mi
5:15 am71 °FFog.No wind91%30.04 "Hg4 mi
4:55 am71 °FFog.No wind91%30.04 "Hg5 mi
4:35 am71 °FClear.No wind91%30.05 "Hg7 mi
3:55 am72 °FClear.No wind89%30.04 "Hg7 mi
3:35 am72 °FClear.No wind89%30.05 "Hg7 mi
3:15 am72 °FClear.No wind89%30.05 "Hg7 mi
2:55 am72 °FFog.No wind89%30.05 "Hg5 mi
2:35 am73 °FFog.No wind89%30.06 "Hg5 mi
2:15 am73 °FClear.No wind88%30.06 "Hg7 mi
1:55 am73 °FClear.No wind87%30.07 "Hg7 mi
1:35 am74 °FFog.No wind86%30.08 "Hg5 mi
1:15 am74 °FClear.No wind85%30.08 "Hg5 mi
12:55 am75 °FClear.No wind83%30.08 "Hg7 mi
12:35 am76 °FClear.No wind80%30.07 "Hg7 mi
12:15 am77 °FClear.No wind76%30.07 "Hg7 mi
11:55 pm
Fri, Jul 3
78 °FClear.No wind73%30.05 "Hg7 mi
11:35 pm77 °FClear.No wind75%30.05 "Hg7 mi
11:15 pm78 °FClear.3 mph73%30.04 "Hg7 mi
10:55 pm79 °FClear.No wind70%30.06 "Hg10 mi
10:35 pm80 °FClear.No wind68%30.04 "Hg10 mi
10:15 pm80 °FClear.No wind67%30.03 "Hg10 mi
9:55 pm82 °FClear.No wind62%30.02 "Hg10 mi
9:35 pm83 °FClear.No wind61%30.01 "Hg10 mi
9:15 pm83 °FClear.No wind61%30.02 "Hg10 mi
8:55 pm85 °FSunny.5 mph57%30.02 "Hg10 mi
8:15 pm86 °FSunny.5 mph55%30.02 "Hg10 mi
7:55 pm86 °FSunny.5 mph55%30.02 "Hg10 mi
7:15 pm87 °FPartly sunny.5 mph55%30.02 "Hg10 mi
6:55 pm87 °FPartly sunny.No wind54%30.02 "Hg10 mi
6:35 pm87 °FScattered clouds.7 mph55%30.02 "Hg10 mi
6:15 pm88 °FSunny.6 mph54%30.02 "Hg10 mi
5:55 pm89 °FSunny.3 mph49%30.02 "Hg10 mi
5:35 pm89 °FSunny.6 mph53%30.02 "Hg10 mi
5:15 pm86 °FScattered clouds.No wind62%30.03 "Hg10 mi
Weather by CustomWeather, © 2020

See weather overview